GW0915 Weather Reports


time (UTC)temp
F
wind
direction
speed
knots
gust
knots
rain 1hr
in
rain 24hr
in
rain mn
in
humidity
%
barometer
mb
20260508075130 47 269 0.0 0.9 0.00 0.00 0.00 76 1007.0
20260508074628 47 269 0.0 0.9 0.00 0.00 0.00 76 1007.5
20260508074125 47 269 0.0 0.0 0.00 0.00 0.00 75 1007.4
20260508073622 48 269 0.0 0.9 0.00 0.00 0.00 74 1007.4
20260508073120 48 269 0.0 1.7 0.00 0.00 0.00 72 1007.3
20260508072614 48 269 0.9 1.7 0.00 0.00 0.00 72 1007.2
20260508072112 48 269 0.9 1.7 0.00 0.00 0.00 71 1007.4
20260508071610 48 270 0.0 1.7 0.00 0.00 0.00 71 1007.6
20260508071108 48 270 0.9 1.7 0.00 0.00 0.00 70 1007.6
20260508070605 48 270 0.9 2.6 0.00 0.00 0.00 68 1007.6
20260508065600 49 281 0.9 2.6 0.00 0.00 0.00 67 1007.4
20260508065058 49 274 1.7 1.7 0.00 0.00 0.00 67 1007.7
20260508064556 48 275 2.6 2.6 0.00 0.00 0.00 66 1007.5
20260508064054 48 348 0.9 0.9 0.00 0.00 0.00 67 1007.4
20260508063551 48 294 0.9 1.7 0.00 0.00 0.00 65 1007.3
20260508063049 48 292 0.9 0.9 0.00 0.00 0.00 67 1007.6
20260508062546 48 293 0.0 0.0 0.00 0.00 0.00 68 1007.5
20260508062042 48 293 0.0 0.0 0.00 0.00 0.00 67 1007.4
20260508061540 48 293 0.9 0.9 0.00 0.00 0.00 67 1007.7
20260508061037 48 293 0.0 0.0 0.00 0.00 0.00 68 1007.6
20260508060534 48 293 0.0 0.9 0.00 0.00 0.00 68 1007.7
20260508060032 48 293 0.0 0.0 0.00 0.00 0.00 67 1007.5
20260508055527 48 293 0.0 0.0 0.00 0.00 0.00 68 1007.4
20260508055024 48 293 0.0 0.9 0.00 0.00 0.00 67 1007.5
20260508054520 48 293 0.9 0.9 0.00 0.00 0.00 68 1007.5
20260508054018 48 293 0.0 0.0 0.00 0.00 0.00 69 1008.0
20260508053514 48 293 0.0 0.0 0.00 0.00 0.00 69 1007.8
20260508053013 48 293 0.0 0.0 0.00 0.00 0.00 68 1008.1
20260508052510 48 293 0.0 0.0 0.00 0.00 0.00 67 1007.9
20260508052006 48 293 0.0 0.0 0.00 0.00 0.00 68 1007.8
20260508051503 48 293 0.0 0.0 0.00 0.00 0.00 69 1008.0
20260508050957 48 293 0.0 0.0 0.00 0.00 0.00 68 1008.2
20260508050454 48 293 0.0 0.0 0.00 0.00 0.00 68 1008.2
20260508045951 48 293 0.0 0.0 0.00 0.00 0.00 68 1008.1
20260508045448 48 293 0.0 0.0 0.00 0.00 0.00 67 1008.2
20260508044946 48 293 0.0 0.0 0.00 0.00 0.00 68 1008.1
20260508044443 48 293 0.0 0.0 0.00 0.00 0.00 66 1008.0
20260508043938 48 293 0.0 0.0 0.00 0.00 0.00 67 1008.0
20260508043436 48 293 0.0 0.0 0.00 0.00 0.00 68 1008.0
20260508042931 48 293 0.0 0.0 0.00 0.00 0.00 67 1008.2
20260508042430 48 293 0.0 0.0 0.00 0.00 0.00 67 1008.2
20260508041926 48 293 0.0 0.0 0.00 0.00 0.00 67 1008.1
20260508041423 48 293 0.0 0.0 0.00 0.00 0.00 68 1008.0
20260508040920 48 293 0.0 0.0 0.00 0.00 0.00 65 1008.1
20260508040417 48 293 0.0 0.0 0.00 0.00 0.00 66 1008.0
20260508035915 48 293 0.0 0.0 0.00 0.00 0.00 65 1008.0
20260508035411 48 293 0.0 0.0 0.00 0.00 0.00 65 1008.0
20260508034908 48 293 0.0 0.9 0.00 0.00 0.00 64 1008.1
20260508034406 48 293 0.0 0.0 0.00 0.00 0.00 64 1008.2
20260508033902 48 293 0.0 0.9 0.00 0.00 0.00 64 1008.1
20260508033400 48 293 0.0 0.9 0.00 0.00 0.00 63 1008.3
20260508032857 48 304 1.7 1.7 0.00 0.00 0.00 60 1008.2
20260508032349 48 310 0.9 0.9 0.00 0.00 0.00 60 1008.2
20260508031845 48 310 0.0 0.9 0.00 0.00 0.00 62 1008.0
20260508031343 47 310 0.9 0.9 0.00 0.00 0.00 61 1008.1
20260508030838 47 310 0.9 0.9 0.00 0.00 0.00 60 1008.3
20260508030336 47 311 0.0 0.9 0.00 0.00 0.00 63 1008.1
20260508025833 46 311 0.0 0.0 0.00 0.00 0.00 63 1008.2
20260508025330 46 312 0.0 0.9 0.00 0.00 0.00 64 1008.2
20260508024827 46 312 0.9 0.9 0.00 0.00 0.00 63 1008.1
20260508024323 46 313 0.0 0.9 0.00 0.00 0.00 63 1008.2
20260508023820 45 313 0.9 0.9 0.00 0.00 0.00 63 1008.1
20260508023316 45 314 0.0 0.0 0.00 0.00 0.00 65 1008.2
20260508022813 46 314 0.0 0.0 0.00 0.00 0.00 63 1008.1
20260508022309 46 314 0.0 0.0 0.00 0.00 0.00 61 1008.2
20260508021807 46 314 0.0 0.0 0.00 0.00 0.00 59 1008.1
20260508021302 46 315 0.0 0.0 0.00 0.00 0.00 58 1007.9
20260508020758 46 315 0.0 0.0 0.00 0.00 0.00 58 1008.0
20260508020256 47 315 0.0 0.0 0.00 0.00 0.00 58 1008.0
20260508015753 47 315 0.0 0.0 0.00 0.00 0.00 57 1007.9
20260508015251 47 315 0.0 0.0 0.00 0.00 0.00 58 1007.7
20260508014747 47 315 0.0 0.0 0.00 0.00 0.00 58 1007.9
20260508014244 47 315 0.0 0.0 0.00 0.00 0.00 57 1007.9
20260508013740 47 315 0.0 0.0 0.00 0.00 0.00 56 1007.9
20260508013236 47 315 0.0 0.0 0.00 0.00 0.00 55 1007.7
20260508012734 48 315 0.0 0.0 0.00 0.00 0.00 54 1007.7
20260508012231 48 315 0.0 0.0 0.00 0.00 0.00 52 1007.7
20260508011729 48 315 0.0 0.0 0.00 0.00 0.00 50 1007.7
20260508011226 48 315 0.0 0.0 0.00 0.00 0.00 51 1007.7
20260508010723 49 315 0.0 0.0 0.00 0.00 0.00 49 1007.7
20260508010221 49 315 0.0 0.0 0.00 0.00 0.00 48 1007.7
20260508005718 49 315 0.0 0.0 0.00 0.00 0.00 49 1007.6
20260508005214 49 315 0.0 0.0 0.00 0.00 0.00 49 1007.5
20260508004710 49 315 0.0 0.0 0.00 0.00 0.00 48 1007.7
20260508004206 50 315 0.0 0.0 0.00 0.00 0.00 48 1007.6
20260508003703 50 315 0.0 0.0 0.00 0.00 0.00 48 1007.6
20260508003201 50 315 0.0 0.0 0.00 0.00 0.00 48 1007.5
20260508002657 51 315 0.0 0.0 0.00 0.00 0.00 49 1007.5
20260508002155 51 315 0.0 0.0 0.00 0.00 0.00 50 1007.6
20260508001650 52 315 0.0 0.0 0.00 0.00 0.00 46 1007.4
20260508001146 52 315 0.0 0.0 0.00 0.00 0.00 44 1007.3
20260508000642 52 315 0.9 0.9 0.00 0.00 0.00 44 1007.5
20260508000139 52 316 0.9 0.9 0.00 0.00 0.00 45 1007.4
20260507235636 53 316 0.9 0.9 0.00 0.00 0.00 43 1007.2
20260507235134 53 317 0.9 1.7 0.00 0.00 0.00 43 1007.2
20260507234630 53 294 2.6 2.6 0.00 0.00 0.00 41 1007.2
20260507234126 53 306 2.6 2.6 0.00 0.00 0.00 40 1007.2
20260507233623 53 295 2.6 2.6 0.00 0.00 0.00 41 1006.9
20260507233122 53 347 1.7 2.6 0.00 0.00 0.00 40 1007.2
20260507232618 53 318 1.7 1.7 0.00 0.00 0.00 40 1007.2
20260507232116 53 305 1.7 4.3 0.00 0.00 0.00 40 1006.9
20260507231612 53 301 1.7 2.6 0.00 0.00 0.00 39 1007.0
20260507231109 54 311 3.5 4.3 0.00 0.00 0.00 39 1007.0
20260507230605 54 303 2.6 2.6 0.00 0.00 0.00 39 1007.3
20260507225557 54 300 3.5 4.3 0.00 0.00 0.00 38 1007.4
20260507225054 54 333 0.9 2.6 0.00 0.00 0.00 38 1007.3
20260507224549 54 308 1.7 2.6 0.00 0.00 0.00 39 1007.3
20260507224046 54 308 1.7 1.7 0.00 0.00 0.00 39 1007.4
20260507223542 54 302 0.9 1.7 0.00 0.00 0.00 40 1007.5
20260507223040 54 319 2.6 7.0 0.00 0.00 0.00 38 1007.0
20260507222537 54 298 2.6 2.6 0.00 0.00 0.00 38 1007.4
20260507222033 54 308 4.3 4.3 0.00 0.00 0.00 38 1007.2
20260507221529 54 282 3.5 4.3 0.00 0.00 0.00 37 1007.3
20260507221026 55 316 5.2 6.1 0.00 0.00 0.00 36 1007.4
20260507220523 54 281 2.6 4.3 0.00 0.00 0.00 39 1007.3
20260507220021 55 276 3.5 5.2 0.00 0.00 0.00 37 1007.0
20260507215517 55 316 2.6 4.3 0.00 0.00 0.00 39 1007.2
20260507215015 55 278 2.6 4.3 0.00 0.00 0.00 39 1007.3
20260507214512 54 295 1.7 2.6 0.00 0.00 0.00 38 1006.9
20260507214007 54 309 2.6 4.3 0.00 0.00 0.00 38 1007.0
20260507213504 54 309 2.6 5.2 0.00 0.00 0.00 39 1007.0
20260507213001 54 324 2.6 5.2 0.00 0.00 0.00 39 1006.9
20260507212457 54 291 3.5 5.2 0.00 0.00 0.00 42 1006.9
20260507211954 55 292 3.5 5.2 0.00 0.00 0.00 44 1006.9
20260507211450 55 303 2.6 2.6 0.00 0.00 0.00 45 1007.0
20260507210947 55 293 3.5 4.3 0.00 0.00 0.00 44 1006.9
20260507210444 55 285 1.7 5.2 0.00 0.00 0.00 45 1006.8
20260507205941 55 294 3.5 4.3 0.00 0.00 0.00 47 1006.7
20260507205438 54 309 2.6 4.3 0.00 0.00 0.00 47 1006.9
20260507204934 54 299 0.9 2.6 0.00 0.00 0.00 46 1006.8
20260507204431 53 321 0.9 1.7 0.00 0.00 0.00 50 1006.4
20260507203928 53 291 1.7 2.6 0.00 0.00 0.00 52 1006.7
20260507203426 54 310 1.7 1.7 0.00 0.00 0.00 50 1006.6
20260507202922 54 297 2.6 2.6 0.00 0.00 0.00 50 1006.7
20260507202419 54 289 2.6 4.3 0.00 0.00 0.00 48 1006.6
20260507201914 55 304 3.5 4.3 0.00 0.00 0.00 48 1006.7
20260507201410 54 339 0.9 2.6 0.00 0.00 0.00 48 1006.6
20260507200907 54 323 2.6 4.3 0.00 0.00 0.00 50 1006.4
20260507200403 55 326 1.7 4.3 0.00 0.00 0.00 48 1006.4
20260507195858 55 294 2.6 2.6 0.00 0.00 0.00 47 1006.4
20260507195356 55 282 1.7 5.2 0.00 0.00 0.00 46 1006.7
20260507194853 55 251 0.9 1.7 0.00 0.00 0.00 47 1006.3
20260507194350 56 283 2.6 2.6 0.00 0.00 0.00 45 1006.5
20260507193846 56 279 1.7 5.2 0.00 0.00 0.00 41 1006.4
20260507193343 56 279 3.5 4.3 0.00 0.00 0.00 45 1006.5
20260507192839 55 286 1.7 4.3 0.00 0.00 0.00 43 1006.6
20260507192336 57 267 2.6 4.3 0.00 0.00 0.00 42 1006.6
20260507191832 55 290 2.6 4.3 0.00 0.00 0.00 43 1006.6
20260507191329 55 357 2.6 2.6 0.00 0.00 0.00 46 1006.5
20260507190826 56 353 0.9 2.6 0.00 0.00 0.00 45 1006.4
20260507190324 55 277 0.0 0.9 0.00 0.00 0.00 48 1006.9
20260507185823 55 293 2.6 2.6 0.00 0.00 0.00 48 1006.8
20260507185319 55 331 1.7 2.6 0.00 0.00 0.00 47 1006.8
20260507184816 55 307 1.7 2.6 0.00 0.00 0.00 47 1006.6
20260507184314 56 307 2.6 2.6 0.00 0.00 0.00 47 1006.8
20260507183811 56 275 0.9 2.6 0.00 0.00 0.00 48 1006.7
20260507183308 56 355 0.0 2.6 0.00 0.00 0.00 45 1006.7
20260507182805 55 310 0.9 1.7 0.00 0.00 0.00 49 1006.9
20260507182300 54 314 2.6 2.6 0.00 0.00 0.00 52 1006.9
20260507181757 54 325 2.6 2.6 0.00 0.00 0.00 50 1006.9
20260507181253 54 352 2.6 2.6 0.00 0.00 0.00 51 1006.9
20260507180750 55 294 2.6 2.6 0.00 0.00 0.00 48 1006.9
20260507180247 55 299 0.9 1.7 0.00 0.00 0.00 47 1006.9
20260507175742 54 289 1.7 1.7 0.00 0.00 0.00 48 1006.8
20260507175240 55 280 1.7 2.6 0.00 0.00 0.00 48 1006.9
20260507174737 55 313 1.7 2.6 0.00 0.00 0.00 45 1006.9
20260507174235 56 296 0.0 4.3 0.00 0.00 0.00 45 1006.8
20260507173733 56 344 0.9 2.6 0.00 0.00 0.00 43 1006.9
20260507173229 55 294 1.7 2.6 0.00 0.00 0.00 47 1007.0
20260507172726 55 307 1.7 1.7 0.00 0.00 0.00 45 1007.2
20260507172223 56 318 2.6 2.6 0.00 0.00 0.00 45 1007.2
20260507171722 57 294 1.7 2.6 0.00 0.00 0.00 43 1006.7
20260507171220 57 288 1.7 1.7 0.00 0.00 0.00 44 1006.9
20260507170717 58 346 2.6 4.3 0.00 0.00 0.00 42 1007.2
20260507170214 57 268 0.0 0.9 0.00 0.00 0.00 44 1007.2
20260507165709 56 257 0.9 1.7 0.00 0.00 0.00 46 1007.2
20260507165206 55 308 2.6 4.3 0.00 0.00 0.00 49 1007.2
20260507164702 56 348 0.9 2.6 0.00 0.00 0.00 46 1007.0
20260507164159 57 314 1.7 2.6 0.00 0.00 0.00 45 1006.9
20260507163656 56 101 0.0 0.0 0.00 0.00 0.00 46 1007.0
20260507163154 55 327 1.7 2.6 0.00 0.00 0.00 46 1007.2
20260507162650 54 298 0.9 2.6 0.00 0.00 0.00 49 1007.2
20260507162146 54 311 0.0 1.7 0.00 0.00 0.00 48 1007.2
20260507161642 54 326 0.9 1.7 0.00 0.00 0.00 47 1007.3
20260507161139 54 289 0.0 0.0 0.00 0.00 0.00 49 1007.2
20260507160636 55 290 0.0 0.0 0.00 0.00 0.00 50 1007.2
20260507160133 54 304 1.7 4.3 0.00 0.00 0.00 49 1007.2
20260507155628 54 287 0.0 0.9 0.00 0.00 0.00 46 1007.4
20260507155125 55 308 1.7 2.6 0.00 0.00 0.00 45 1007.3
20260507154621 55 328 0.9 0.9 0.00 0.00 0.00 46 1007.0
20260507154119 56 292 1.7 1.7 0.00 0.00 0.00 47 1007.3
20260507153615 57 59 0.0 2.6 0.00 0.00 0.00 44 1007.3
20260507153112 56 256 0.9 1.7 0.00 0.00 0.00 45 1007.2
20260507152608 56 264 2.6 2.6 0.00 0.00 0.00 43 1007.4
20260507152104 57 226 1.7 2.6 0.00 0.00 0.00 47 1007.5
20260507151600 57 242 2.6 2.6 0.00 0.00 0.00 43 1007.2
20260507151057 57 78 0.0 1.7 0.00 0.00 0.00 44 1007.5
20260507150555 55 257 0.9 1.7 0.00 0.00 0.00 47 1007.4
20260507150051 54 58 0.0 0.0 0.00 0.00 0.00 48 1007.5
20260507145546 55 306 0.0 1.7 0.00 0.00 0.00 50 1007.5
20260507145044 56 334 0.0 0.0 0.00 0.00 0.00 46 1007.4
20260507144540 56 318 0.0 2.6 0.00 0.00 0.00 49 1007.3
20260507144038 56 288 0.0 0.0 0.00 0.00 0.00 46 1007.3
20260507143535 56 265 0.0 0.0 0.00 0.00 0.00 44 1007.2
20260507143033 55 257 0.9 1.7 0.00 0.00 0.00 49 1007.6
20260507142527 55 231 0.9 0.9 0.00 0.00 0.00 49 1007.5
20260507142025 55 32 0.9 1.7 0.00 0.00 0.00 53 1007.4
20260507141521 54 54 0.0 0.0 0.00 0.00 0.00 50 1007.5
20260507141018 54 30 0.0 0.9 0.00 0.00 0.00 51 1007.6
20260507140515 54 90 0.9 1.7 0.00 0.00 0.00 54 1007.7
20260507140012 54 193 0.9 1.7 0.00 0.00 0.00 55 1007.7
20260507135509 54 30 0.0 1.7 0.00 0.00 0.00 57 1007.8
20260507135006 54 346 0.0 1.7 0.00 0.00 0.00 56 1008.0
20260507134502 54 34 0.0 0.0 0.00 0.00 0.00 57 1007.7
20260507133958 54 76 0.0 0.0 0.00 0.00 0.00 56 1007.9
20260507133454 53 65 0.0 0.0 0.00 0.00 0.00 57 1007.9
20260507132953 52 32 0.0 0.0 0.00 0.00 0.00 60 1008.0
20260507132449 53 250 0.0 0.0 0.00 0.00 0.00 59 1007.8
20260507131945 52 247 0.0 0.0 0.00 0.00 0.00 60 1008.0
20260507131442 52 248 0.0 0.0 0.00 0.00 0.00 61 1008.0
20260507130939 51 242 0.0 0.0 0.00 0.00 0.00 64 1008.1
20260507130436 51 235 0.0 0.9 0.00 0.00 0.00 63 1008.1
20260507125935 51 226 0.0 0.0 0.00 0.00 0.00 66 1008.0
20260507125433 50 219 0.0 0.0 0.00 0.00 0.00 66 1008.0
20260507124930 50 219 0.0 0.0 0.00 0.00 0.00 68 1008.0
20260507124426 50 218 0.0 0.0 0.00 0.00 0.00 68 1008.1
20260507123925 49 219 0.0 0.0 0.00 0.00 0.00 66 1008.2
20260507123422 49 221 0.0 0.0 0.00 0.00 0.00 70 1008.1
20260507122918 49 221 0.0 0.0 0.00 0.00 0.00 69 1007.7
20260507122413 48 221 0.0 0.0 0.00 0.00 0.00 70 1008.0
20260507121910 48 266 0.0 0.0 0.00 0.00 0.00 70 1007.9
20260507121405 48 266 0.0 0.0 0.00 0.00 0.00 70 1007.9
20260507120902 48 266 0.0 0.0 0.00 0.00 0.00 72 1007.8
20260507120358 48 267 0.9 1.7 0.00 0.00 0.00 70 1008.0
20260507115854 48 254 0.0 0.9 0.00 0.00 0.00 72 1007.7
20260507115350 47 225 0.0 0.0 0.00 0.00 0.00 71 1007.8
20260507114846 47 226 0.0 0.0 0.00 0.00 0.00 72 1008.0
20260507114343 47 221 0.0 0.0 0.00 0.00 0.00 72 1007.7
20260507113841 47 220 0.0 0.0 0.00 0.00 0.00 73 1008.0
20260507113338 46 220 0.0 0.0 0.00 0.00 0.00 73 1007.9
20260507112835 45 115 0.0 0.0 0.00 0.00 0.00 78 1007.9
20260507112332 44 114 0.0 0.0 0.00 0.00 0.00 80 1008.1
20260507111830 44 114 0.0 0.0 0.00 0.00 0.00 79 1008.0
20260507111326 44 114 0.0 0.0 0.00 0.00 0.00 80 1007.8
20260507110823 43 114 0.0 0.0 0.00 0.00 0.00 80 1007.8
20260507110319 43 114 0.0 0.0 0.00 0.00 0.00 79 1007.8
20260507105816 44 114 0.0 0.0 0.00 0.00 0.00 79 1007.8
20260507105312 44 114 0.0 0.0 0.00 0.00 0.00 78 1007.7
20260507104809 44 114 0.0 0.0 0.00 0.00 0.00 79 1007.5
20260507104306 44 114 0.0 0.9 0.00 0.00 0.00 80 1007.6
20260507103802 44 114 0.0 0.0 0.00 0.00 0.00 80 1007.5
20260507103258 43 114 0.0 0.0 0.00 0.00 0.00 79 1007.7
20260507102755 43 114 0.0 0.0 0.00 0.00 0.00 80 1007.4
20260507102252 43 114 0.0 0.0 0.00 0.00 0.00 80 1007.6
20260507101748 43 114 0.0 0.0 0.00 0.00 0.00 80 1007.5
20260507101243 43 114 0.0 0.9 0.00 0.00 0.00 82 1007.6
20260507100740 43 114 0.0 0.0 0.00 0.00 0.00 83 1007.4
20260507100239 42 114 0.0 0.0 0.00 0.00 0.00 81 1007.5
20260507095736 42 114 0.0 0.0 0.00 0.00 0.00 81 1007.5
20260507095232 42 114 0.0 0.0 0.00 0.00 0.00 81 1007.6
20260507094729 43 114 0.0 0.0 0.00 0.00 0.00 81 1007.5
20260507094226 43 114 0.0 0.0 0.00 0.00 0.00 81 1007.5
20260507093723 43 114 0.0 0.0 0.00 0.00 0.00 80 1007.4
20260507093222 43 114 0.0 0.0 0.00 0.00 0.00 81 1007.5
20260507092719 43 114 0.0 0.0 0.00 0.00 0.00 80 1007.5
20260507092215 43 114 0.0 0.0 0.00 0.00 0.00 79 1007.6
20260507091711 43 114 0.0 0.0 0.00 0.00 0.00 80 1007.7
20260507091208 43 114 0.0 0.0 0.00 0.00 0.00 81 1007.6
20260507090703 43 114 0.0 0.0 0.00 0.00 0.00 81 1007.6
20260507090200 42 114 0.0 0.9 0.00 0.00 0.00 83 1007.5
20260507085657 42 113 0.0 0.0 0.00 0.00 0.00 86 1007.6
20260507085154 41 113 0.0 0.0 0.00 0.00 0.00 88 1007.7
20260507084651 41 113 0.0 0.0 0.00 0.00 0.00 90 1007.6
20260507084147 41 113 0.0 0.0 0.00 0.00 0.00 90 1007.4
20260507083644 41 113 0.0 0.0 0.00 0.00 0.00 91 1007.7
20260507083141 41 113 0.0 0.0 0.00 0.00 0.00 91 1007.7
20260507082637 40 113 0.0 0.9 0.00 0.00 0.00 91 1008.0
20260507082134 40 113 0.0 0.0 0.00 0.00 0.00 91 1007.6
20260507081631 40 113 0.0 0.0 0.00 0.00 0.00 91 1007.7
20260507081127 40 113 0.0 0.0 0.00 0.00 0.00 91 1007.7
20260507080623 40 113 0.0 0.0 0.00 0.00 0.00 91 1007.7
20260507080120 40 113 0.0 0.0 0.00 0.00 0.00 90 1007.7
20260507075620 40 113 0.0 0.0 0.00 0.00 0.00 90 1007.5